STARLINK-32390, 61630

Orbit data source: Space-Track

STARLINK-32390, 61630 is a payload satellite owned by SpaceX/Seattle (US) in LEO that was launched on Wed, 23 Oct 2024 UTC via an FALCON 9 launch vehicle from the Air Force Eastern Test Range (AFETR). Payload-class satellites include a variety of spacecraft equipped with specific instruments for various scientific and technological missions. These include communications satellites like Starlink; space stations such as the ISS; scientific satellites like the Hubble; Earth observation satellites from companies like Planet Labs, Umbra, and HawkEye 360; GPS; miniature CubeSats for education and research; and military/defense satellites.

Loading next visibility...
Identifier
61630, 2024-191K
Orbit
LEO
Country
Flag of USUS
Related business
Manufacturer
SpaceX/Seattle
Mission
Operational spacecraft
Bus & Motor
STARLINK V2M, Unknown motor
Mass
730 kg wet, ~700 kg dry
Launch date (UTC)
2024-10-23 (1 year ago)
Launch vehicle
FALCON 9
Launch site
Air Force Eastern Test Range (AFETR)
Object type
Payload
Rocket body
Debris
Shape & HBR
Unknown shape, 17.7 m
Radar Cross Section
Large (>1 m²)

Expand to show TLE details & history
Last TLE update: 11 hours ago

TLE from 11 hours ago
0 STARLINK-32390
1 61630U 24191K   25351.75864363 -.00000968  00000-0 -25642-4 0  9999
2 61630  43.0004 257.4200 0001119 262.7656  97.3069 15.27581940 65002
Epoch: 2025-12-17T18:12Z
TLE epoch observation values (Epoch: 2025-12-17T18:12:26.809Z)
Latitude
0.00001°
Longitude
-102.31559°
Altitude
482.916 km
Speed
7.626 km/s
True Right ascension
17h 09m 40s
True Declination
0° 00' 00"
Sunlit
Object was in daylight at epoch
Visualization orbit readout
Latitude
Unknown
Longitude
Unknown
Altitude
Unknown
Speed
Unknown
Apparent Right ascension
Unknown
Apparent Declination
Unknown
Sunlit
N/A
Visualization observer readout
Local Sidereal Time
03:47:07
Azimuth
Unknown
Elevation
Unknown
Doppler factor
Unknown
Orbital elements
Apogee altitude
485.756 km
Perigee altitude
484.22 km
Semi-major axis
6,863.125 km
Eccentricity
0.00011
Inclination
43.0004°
RAAN
257.42°
Arg. of periapsis
262.7656°
True anomaly
97.31962°
Mean anomaly
97.3069°
Eccentric anomaly
97.31326°
Mean motion
3.81733 °/min
Orbital period
94.31 mins
BSTAR
-0.000025642
Loading maneuver chart data...
Computing Atmospheric mass density...
Loading historical data...
Loading historical data...
Loading historical data...
Loading historical data...
Loading historical data...
Loading historical data...
Loading historical data...

Documentation

Showing up to 5 results
|